Time,TemperatureF,DewpointF,PressureIn,WindDirection,WindDirectionDegrees,WindSpeedMPH,WindSpeedGustMPH,Humidity,HourlyPrecipIn,Conditions,Clouds,dailyrainin,SolarRadiationWatts/m^2,SoftwareType,DateUTC
2018-05-20 00:04:00,70.0,67.3,29.86,SSW,198,5.0,6.0,91,0.00,,,0.00,0,Wunderground v.1.15,2018-05-20 04:04:00,
2018-05-20 00:10:00,69.8,67.1,29.87,South,191,5.0,5.0,91,0.00,,,0.00,0,Wunderground v.1.15,2018-05-20 04:10:00,
2018-05-20 00:16:00,69.7,67.0,29.87,SSW,200,5.0,9.0,91,0.00,,,0.00,0,Wunderground v.1.15,2018-05-20 04:16:00,
2018-05-20 00:22:00,69.6,66.5,29.87,SSW,200,6.0,8.0,90,0.00,,,0.00,0,Wunderground v.1.15,2018-05-20 04:22:00,
2018-05-20 00:28:00,69.5,66.4,29.88,SSW,192,6.0,10.0,90,0.00,,,0.00,0,Wunderground v.1.15,2018-05-20 04:28:00,
2018-05-20 00:34:00,69.6,66.5,29.88,SSW,209,6.0,7.0,90,0.00,,,0.00,0,Wunderground v.1.15,2018-05-20 04:34:00,
2018-05-20 00:40:00,69.7,66.6,29.88,SSW,211,6.0,6.0,90,0.00,,,0.00,0,Wunderground v.1.15,2018-05-20 04:40:00,
2018-05-20 00:46:00,69.7,66.6,29.88,SSW,211,4.0,7.0,90,0.00,,,0.00,0,Wunderground v.1.15,2018-05-20 04:46:00,
2018-05-20 00:52:00,69.5,66.4,29.88,SSE,168,4.0,4.0,90,0.00,,,0.00,0,Wunderground v.1.15,2018-05-20 04:52:00,
2018-05-20 00:58:00,69.5,66.4,29.88,SSW,207,4.0,7.0,90,0.00,,,0.00,0,Wunderground v.1.15,2018-05-20 04:58:00,
2018-05-20 01:04:00,69.5,66.4,29.88,South,190,6.0,12.0,90,0.00,,,0.00,0,Wunderground v.1.15,2018-05-20 05:04:00,
2018-05-20 01:10:00,69.6,66.5,29.88,South,188,5.0,12.0,90,0.00,,,0.00,0,Wunderground v.1.15,2018-05-20 05:10:00,
2018-05-20 01:16:00,69.5,66.8,29.88,SSW,205,4.0,12.0,91,0.00,,,0.00,0,Wunderground v.1.15,2018-05-20 05:16:00,
2018-05-20 01:22:00,69.3,66.6,29.88,SSW,208,4.0,12.0,91,0.00,,,0.00,0,Wunderground v.1.15,2018-05-20 05:22:00,
2018-05-20 01:28:00,69.0,66.6,29.88,SSW,194,4.0,12.0,92,0.00,,,0.00,0,Wunderground v.1.15,2018-05-20 05:28:00,
2018-05-20 01:34:00,68.6,66.2,29.88,SSW,202,5.0,12.0,92,0.00,,,0.00,0,Wunderground v.1.15,2018-05-20 05:34:00,
2018-05-20 01:40:00,68.3,66.2,29.88,SW,221,5.0,12.0,93,0.00,,,0.00,0,Wunderground v.1.15,2018-05-20 05:40:00,
2018-05-20 01:46:00,68.1,66.0,29.88,SW,222,4.0,12.0,93,0.00,,,0.00,0,Wunderground v.1.15,2018-05-20 05:46:00,
2018-05-20 01:52:00,67.9,65.8,29.89,SW,227,4.0,12.0,93,0.00,,,0.00,0,Wunderground v.1.15,2018-05-20 05:52:00,
2018-05-20 01:58:00,67.9,65.8,29.89,SSW,208,4.0,12.0,93,0.00,,,0.00,0,Wunderground v.1.15,2018-05-20 05:58:00,
2018-05-20 02:04:00,67.9,65.8,29.89,SSW,211,4.0,12.0,93,0.00,,,0.00,0,Wunderground v.1.15,2018-05-20 06:04:00,
2018-05-20 02:10:00,67.9,65.8,29.89,SSW,210,4.0,4.0,93,0.00,,,0.00,0,Wunderground v.1.15,2018-05-20 06:10:00,
2018-05-20 02:16:00,67.8,65.7,29.88,SW,215,4.0,12.0,93,0.00,,,0.00,0,Wunderground v.1.15,2018-05-20 06:16:00,
2018-05-20 02:22:00,67.8,65.7,29.88,SSW,213,3.0,12.0,93,0.00,,,0.00,0,Wunderground v.1.15,2018-05-20 06:22:00,
2018-05-20 02:28:00,67.8,65.7,29.88,SSW,211,3.0,12.0,93,0.00,,,0.00,0,Wunderground v.1.15,2018-05-20 06:28:00,
2018-05-20 02:34:00,67.8,65.7,29.88,SSW,209,3.0,12.0,93,0.00,,,0.00,0,Wunderground v.1.15,2018-05-20 06:34:00,
2018-05-20 02:40:00,67.7,65.6,29.89,SSW,207,4.0,4.0,93,0.00,,,0.00,0,Wunderground v.1.15,2018-05-20 06:40:00,
2018-05-20 02:46:00,67.7,65.9,29.89,WSW,238,3.0,12.0,94,0.00,,,0.00,0,Wunderground v.1.15,2018-05-20 06:46:00,
2018-05-20 02:52:00,67.7,65.9,29.89,SW,225,3.0,5.0,94,0.00,,,0.00,0,Wunderground v.1.15,2018-05-20 06:52:00,
2018-05-20 02:58:00,67.7,65.9,29.89,SW,216,2.0,12.0,94,0.00,,,0.00,0,Wunderground v.1.15,2018-05-20 06:58:00,
2018-05-20 03:04:00,67.7,65.9,29.89,SW,216,2.0,12.0,94,0.00,,,0.00,0,Wunderground v.1.15,2018-05-20 07:04:00,
2018-05-20 03:10:00,67.7,65.9,29.89,SW,217,2.0,12.0,94,0.00,,,0.00,0,Wunderground v.1.15,2018-05-20 07:10:00,
2018-05-20 03:16:00,67.7,65.9,29.89,SW,217,3.0,12.0,94,0.00,,,0.00,0,Wunderground v.1.15,2018-05-20 07:16:00,
2018-05-20 03:22:00,67.7,65.9,29.89,SSW,207,2.0,12.0,94,0.00,,,0.00,0,Wunderground v.1.15,2018-05-20 07:22:00,
2018-05-20 03:28:00,67.8,66.0,29.89,SW,225,3.0,12.0,94,0.00,,,0.00,0,Wunderground v.1.15,2018-05-20 07:28:00,
2018-05-20 03:34:00,67.8,66.0,29.89,SW,225,2.0,12.0,94,0.00,,,0.00,0,Wunderground v.1.15,2018-05-20 07:34:00,
2018-05-20 03:40:00,67.8,66.0,29.89,SW,225,1.0,1.0,94,0.00,,,0.00,0,Wunderground v.1.15,2018-05-20 07:40:00,
2018-05-20 03:46:00,67.8,66.0,29.88,SW,225,0.0,12.0,94,0.00,,,0.00,0,Wunderground v.1.15,2018-05-20 07:46:00,
2018-05-20 03:52:00,67.8,66.0,29.89,SW,225,1.0,12.0,94,0.00,,,0.00,0,Wunderground v.1.15,2018-05-20 07:52:00,
2018-05-20 03:58:00,67.7,65.9,29.89,SW,223,2.0,12.0,94,0.00,,,0.00,0,Wunderground v.1.15,2018-05-20 07:58:00,
2018-05-20 04:04:00,67.6,65.8,29.89,SW,225,2.0,12.0,94,0.00,,,0.00,0,Wunderground v.1.15,2018-05-20 08:04:00,
2018-05-20 04:10:00,67.6,65.8,29.89,SW,224,1.0,12.0,94,0.00,,,0.00,0,Wunderground v.1.15,2018-05-20 08:10:00,
2018-05-20 04:16:00,67.6,65.8,29.89,SW,221,2.0,12.0,94,0.00,,,0.00,0,Wunderground v.1.15,2018-05-20 08:16:00,
2018-05-20 04:22:00,67.6,65.8,29.89,SW,221,3.0,12.0,94,0.00,,,0.00,0,Wunderground v.1.15,2018-05-20 08:22:00,
2018-05-20 04:28:00,67.6,65.8,29.90,SW,219,3.0,12.0,94,0.00,,,0.00,0,Wunderground v.1.15,2018-05-20 08:28:00,
2018-05-20 04:34:00,67.5,65.7,29.90,SW,215,2.0,12.0,94,0.00,,,0.00,0,Wunderground v.1.15,2018-05-20 08:34:00,
2018-05-20 04:40:00,67.6,65.8,29.90,SW,216,2.0,12.0,94,0.00,,,0.00,0,Wunderground v.1.15,2018-05-20 08:40:00,
2018-05-20 04:46:00,67.6,65.8,29.90,SW,216,2.0,12.0,94,0.00,,,0.00,0,Wunderground v.1.15,2018-05-20 08:46:00,
2018-05-20 04:52:00,67.5,65.7,29.90,SW,216,1.0,12.0,94,0.00,,,0.00,0,Wunderground v.1.15,2018-05-20 08:52:00,
2018-05-20 04:58:00,67.5,65.7,29.90,SW,216,1.0,12.0,94,0.00,,,0.00,0,Wunderground v.1.15,2018-05-20 08:58:00,
2018-05-20 05:04:00,67.5,65.7,29.90,SSW,209,3.0,12.0,94,0.00,,,0.00,0,Wunderground v.1.15,2018-05-20 09:04:00,
2018-05-20 05:10:00,67.5,65.7,29.90,SSW,210,4.0,4.0,94,0.00,,,0.00,0,Wunderground v.1.15,2018-05-20 09:10:00,
2018-05-20 05:16:00,67.5,65.7,29.90,SSW,210,3.0,12.0,94,0.00,,,0.00,0,Wunderground v.1.15,2018-05-20 09:16:00,
2018-05-20 05:22:00,67.4,65.6,29.90,SW,217,2.0,12.0,94,0.00,,,0.00,0,Wunderground v.1.15,2018-05-20 09:22:00,
2018-05-20 05:28:00,67.3,65.5,29.90,SW,217,2.0,12.0,94,0.00,,,0.00,0,Wunderground v.1.15,2018-05-20 09:28:00,
2018-05-20 05:34:00,67.3,65.5,29.91,SW,229,2.0,12.0,94,0.00,,,0.00,0,Wunderground v.1.15,2018-05-20 09:34:00,
2018-05-20 05:40:00,67.4,65.6,29.91,SW,225,3.0,12.0,94,0.00,,,0.00,0,Wunderground v.1.15,2018-05-20 09:40:00,
2018-05-20 05:46:00,67.4,65.6,29.91,SW,223,2.0,12.0,94,0.00,,,0.00,0,Wunderground v.1.15,2018-05-20 09:46:00,
2018-05-20 05:52:00,67.4,65.6,29.91,SW,220,1.0,12.0,94,0.00,,,0.00,0,Wunderground v.1.15,2018-05-20 09:52:00,
2018-05-20 05:58:00,67.4,65.6,29.91,SW,220,2.0,12.0,94,0.00,,,0.00,0,Wunderground v.1.15,2018-05-20 09:58:00,
2018-05-20 06:04:00,67.3,65.5,29.91,SW,221,1.0,12.0,94,0.00,,,0.00,0,Wunderground v.1.15,2018-05-20 10:04:00,
2018-05-20 06:10:00,67.4,65.6,29.92,SW,232,0.0,12.0,94,0.00,,,0.00,0,Wunderground v.1.15,2018-05-20 10:10:00,
2018-05-20 06:16:00,67.4,65.6,29.92,North,350,0.0,12.0,94,0.00,,,0.00,7,Wunderground v.1.15,2018-05-20 10:16:00,
2018-05-20 06:22:00,67.4,65.6,29.92,North,351,1.0,12.0,94,0.00,,,0.00,7,Wunderground v.1.15,2018-05-20 10:22:00,
2018-05-20 06:28:00,67.2,65.4,29.92,NW,326,1.0,12.0,94,0.00,,,0.00,16,Wunderground v.1.15,2018-05-20 10:28:00,
2018-05-20 06:34:00,67.0,65.2,29.93,NW,321,2.0,12.0,94,0.00,,,0.00,23,Wunderground v.1.15,2018-05-20 10:34:00,
2018-05-20 06:40:00,67.0,65.2,29.93,NNW,329,1.0,1.0,94,0.00,,,0.00,30,Wunderground v.1.15,2018-05-20 10:40:00,
2018-05-20 06:46:00,67.0,65.2,29.93,NNW,329,0.0,12.0,94,0.00,,,0.00,35,Wunderground v.1.15,2018-05-20 10:46:00,
2018-05-20 06:52:00,67.0,65.2,29.94,NW,319,1.0,12.0,94,0.00,,,0.00,30,Wunderground v.1.15,2018-05-20 10:52:00,
2018-05-20 06:58:00,67.0,64.9,29.94,NNW,338,1.0,12.0,93,0.00,,,0.00,32,Wunderground v.1.15,2018-05-20 10:58:00,
2018-05-20 07:04:00,67.0,64.9,29.94,WNW,300,1.0,12.0,93,0.00,,,0.00,26,Wunderground v.1.15,2018-05-20 11:04:00,
2018-05-20 07:10:00,67.0,64.9,29.95,West,265,0.0,12.0,93,0.00,,,0.00,35,Wunderground v.1.15,2018-05-20 11:10:00,
2018-05-20 07:16:00,67.0,64.9,29.95,WSW,251,1.0,12.0,93,0.00,,,0.00,39,Wunderground v.1.15,2018-05-20 11:16:00,
2018-05-20 07:22:00,67.0,64.9,29.95,NW,313,0.0,8.0,93,0.00,,,0.00,35,Wunderground v.1.15,2018-05-20 11:22:00,
2018-05-20 07:28:00,67.0,64.9,29.96,NW,313,1.0,12.0,93,0.00,,,0.00,56,Wunderground v.1.15,2018-05-20 11:28:00,
2018-05-20 07:34:00,67.0,64.9,29.95,NW,306,2.0,12.0,93,0.00,,,0.00,97,Wunderground v.1.15,2018-05-20 11:34:00,
2018-05-20 07:40:00,67.2,65.1,29.95,NW,307,1.0,1.0,93,0.00,,,0.00,118,Wunderground v.1.15,2018-05-20 11:40:00,
2018-05-20 07:46:00,67.3,65.2,29.95,NW,309,0.0,12.0,93,0.00,,,0.00,120,Wunderground v.1.15,2018-05-20 11:46:00,
2018-05-20 07:52:00,67.4,65.3,29.96,NW,309,1.0,12.0,93,0.00,,,0.00,111,Wunderground v.1.15,2018-05-20 11:52:00,
2018-05-20 07:58:00,67.5,65.1,29.97,WNW,297,1.0,12.0,92,0.00,,,0.00,111,Wunderground v.1.15,2018-05-20 11:58:00,
2018-05-20 08:04:00,67.4,65.0,29.97,WNW,294,2.0,12.0,92,0.00,,,0.00,97,Wunderground v.1.15,2018-05-20 12:04:00,
2018-05-20 08:10:00,67.4,65.0,29.98,West,279,1.0,12.0,92,0.00,,,0.00,67,Wunderground v.1.15,2018-05-20 12:10:00,
2018-05-20 08:16:00,67.3,64.9,29.98,WNW,302,2.0,12.0,92,0.00,,,0.00,25,Wunderground v.1.15,2018-05-20 12:16:00,
2018-05-20 08:22:00,66.9,64.5,29.99,WNW,292,3.0,12.0,92,0.00,,,0.00,49,Wunderground v.1.15,2018-05-20 12:22:00,
2018-05-20 08:28:00,66.3,63.9,29.99,NNW,327,4.0,12.0,92,0.00,,,0.00,63,Wunderground v.1.15,2018-05-20 12:28:00,
2018-05-20 08:34:00,65.6,63.2,29.99,NNW,329,4.0,12.0,92,0.00,,,0.00,63,Wunderground v.1.15,2018-05-20 12:34:00,
2018-05-20 08:40:00,65.1,63.0,29.99,NNW,329,3.0,3.0,93,0.00,,,0.00,79,Wunderground v.1.15,2018-05-20 12:40:00,
2018-05-20 08:46:00,64.8,62.7,29.99,North,351,2.0,12.0,93,0.00,,,0.00,65,Wunderground v.1.15,2018-05-20 12:46:00,
2018-05-20 08:52:00,64.5,62.4,30.00,North,5,2.0,3.0,93,0.00,,,0.00,93,Wunderground v.1.15,2018-05-20 12:52:00,
2018-05-20 08:58:00,64.2,62.1,30.00,NNE,22,2.0,12.0,93,0.00,,,0.00,90,Wunderground v.1.15,2018-05-20 12:58:00,
2018-05-20 09:04:00,64.1,62.0,30.00,North,355,1.0,12.0,93,0.00,,,0.00,111,Wunderground v.1.15,2018-05-20 13:04:00,
2018-05-20 09:10:00,64.0,61.9,30.00,North,355,1.0,1.0,93,0.00,,,0.00,107,Wunderground v.1.15,2018-05-20 13:10:00,
2018-05-20 09:16:00,63.8,61.7,30.00,North,5,3.0,13.0,93,0.00,,,0.00,125,Wunderground v.1.15,2018-05-20 13:16:00,
2018-05-20 09:22:00,63.5,61.4,30.01,NNW,345,5.0,12.0,93,0.00,,,0.00,114,Wunderground v.1.15,2018-05-20 13:22:00,
2018-05-20 09:28:00,63.5,61.4,30.01,NNE,18,5.0,12.0,93,0.00,,,0.00,84,Wunderground v.1.15,2018-05-20 13:28:00,
2018-05-20 09:34:00,63.5,61.4,30.01,NNW,346,4.0,12.0,93,0.00,,,0.00,74,Wunderground v.1.15,2018-05-20 13:34:00,
2018-05-20 09:40:00,63.4,61.3,30.02,North,9,4.0,4.0,93,0.00,,,0.00,81,Wunderground v.1.15,2018-05-20 13:40:00,
2018-05-20 09:46:00,63.3,61.2,30.02,North,360,3.0,12.0,93,0.00,,,0.00,113,Wunderground v.1.15,2018-05-20 13:46:00,
2018-05-20 09:52:00,63.3,61.2,30.01,NNE,20,2.0,12.0,93,0.00,,,0.00,130,Wunderground v.1.15,2018-05-20 13:52:00,
2018-05-20 09:58:00,63.3,61.2,30.01,North,360,3.0,12.0,93,0.00,,,0.00,213,Wunderground v.1.15,2018-05-20 13:58:00,
2018-05-20 10:04:00,63.4,61.3,30.01,North,5,3.0,12.0,93,0.00,,,0.00,357,Wunderground v.1.15,2018-05-20 14:04:00,
2018-05-20 10:10:00,63.6,61.5,30.01,North,5,3.0,3.0,93,0.00,,,0.00,234,Wunderground v.1.15,2018-05-20 14:10:00,
2018-05-20 10:16:00,63.8,61.7,30.01,NNW,345,1.0,12.0,93,0.00,,,0.00,188,Wunderground v.1.15,2018-05-20 14:16:00,
2018-05-20 10:22:00,63.9,61.8,30.01,North,360,1.0,12.0,93,0.00,,,0.00,287,Wunderground v.1.15,2018-05-20 14:22:00,
2018-05-20 10:28:00,64.2,62.1,30.00,North,5,0.0,12.0,93,0.00,,,0.00,408,Wunderground v.1.15,2018-05-20 14:28:00,
2018-05-20 10:34:00,64.7,62.6,30.00,NNE,32,2.0,12.0,93,0.00,,,0.00,371,Wunderground v.1.15,2018-05-20 14:34:00,
2018-05-20 10:40:00,64.9,62.2,30.00,NNE,18,4.0,4.0,91,0.00,,,0.00,406,Wunderground v.1.15,2018-05-20 14:40:00,
2018-05-20 10:46:00,65.1,62.4,30.01,North,9,5.0,12.0,91,0.00,,,0.00,371,Wunderground v.1.15,2018-05-20 14:46:00,
2018-05-20 10:52:00,65.5,62.8,30.01,NNE,14,5.0,6.0,91,0.00,,,0.00,520,Wunderground v.1.15,2018-05-20 14:52:00,
2018-05-20 10:58:00,65.9,62.9,30.01,NNW,330,5.0,18.0,90,0.00,,,0.00,422,Wunderground v.1.15,2018-05-20 14:58:00,
2018-05-20 11:04:00,66.2,62.9,30.01,North,360,6.0,12.0,89,0.00,,,0.00,329,Wunderground v.1.15,2018-05-20 15:04:00,
2018-05-20 11:10:00,66.4,63.1,30.02,North,11,6.0,6.0,89,0.00,,,0.00,366,Wunderground v.1.15,2018-05-20 15:10:00,
2018-05-20 11:16:00,66.5,62.8,30.03,NNW,333,4.0,13.0,88,0.00,,,0.00,295,Wunderground v.1.15,2018-05-20 15:16:00,
2018-05-20 11:22:00,66.7,63.0,30.04,NNW,341,4.0,12.0,88,0.00,,,0.00,339,Wunderground v.1.15,2018-05-20 15:22:00,
2018-05-20 11:28:00,66.7,62.7,30.04,North,355,4.0,12.0,87,0.00,,,0.00,309,Wunderground v.1.15,2018-05-20 15:28:00,
2018-05-20 11:34:00,66.7,63.0,30.04,NW,326,5.0,12.0,88,0.00,,,0.00,353,Wunderground v.1.15,2018-05-20 15:34:00,
2018-05-20 11:40:00,67.1,63.7,30.04,NW,326,3.0,3.0,89,0.00,,,0.00,315,Wunderground v.1.15,2018-05-20 15:40:00,
2018-05-20 11:46:00,67.1,62.8,30.04,NW,326,3.0,12.0,86,0.00,,,0.00,381,Wunderground v.1.15,2018-05-20 15:46:00,
2018-05-20 11:52:00,67.3,63.0,30.04,West,281,4.0,12.0,86,0.00,,,0.00,640,Wunderground v.1.15,2018-05-20 15:52:00,
2018-05-20 11:58:00,67.7,63.7,30.04,NNE,23,3.0,12.0,87,0.00,,,0.00,633,Wunderground v.1.15,2018-05-20 15:58:00,
2018-05-20 12:04:00,68.3,63.6,30.03,NW,321,3.0,12.0,85,0.00,,,0.00,838,Wunderground v.1.15,2018-05-20 16:04:00,
2018-05-20 12:10:00,68.9,64.2,30.03,West,280,4.0,4.0,85,0.00,,,0.00,563,Wunderground v.1.15,2018-05-20 16:10:00,
2018-05-20 12:16:00,69.3,64.3,30.03,North,355,4.0,12.0,84,0.00,,,0.00,603,Wunderground v.1.15,2018-05-20 16:16:00,
2018-05-20 12:22:00,69.7,64.3,30.04,West,281,3.0,12.0,83,0.00,,,0.00,577,Wunderground v.1.15,2018-05-20 16:22:00,
2018-05-20 12:28:00,69.9,64.2,30.04,NNW,348,4.0,12.0,82,0.00,,,0.00,448,Wunderground v.1.15,2018-05-20 16:28:00,
2018-05-20 12:34:00,70.0,64.2,30.04,NNW,336,4.0,12.0,82,0.00,,,0.00,417,Wunderground v.1.15,2018-05-20 16:34:00,
2018-05-20 12:40:00,69.9,63.8,30.04,NW,313,4.0,12.0,81,0.00,,,0.00,346,Wunderground v.1.15,2018-05-20 16:40:00,
2018-05-20 12:46:00,69.4,63.3,30.05,NNW,346,4.0,12.0,81,0.00,,,0.00,279,Wunderground v.1.15,2018-05-20 16:46:00,
2018-05-20 12:52:00,69.1,63.4,30.05,NW,314,4.0,12.0,82,0.00,,,0.00,404,Wunderground v.1.15,2018-05-20 16:52:00,
2018-05-20 12:58:00,69.1,63.7,30.05,NNW,343,4.0,12.0,83,0.00,,,0.00,343,Wunderground v.1.15,2018-05-20 16:58:00,
2018-05-20 13:04:00,69.1,63.7,30.05,NNW,328,5.0,12.0,83,0.00,,,0.00,243,Wunderground v.1.15,2018-05-20 17:04:00,
2018-05-20 13:10:00,69.0,63.6,30.06,NW,326,5.0,12.0,83,0.00,,,0.00,285,Wunderground v.1.15,2018-05-20 17:10:00,
2018-05-20 13:16:00,68.9,63.9,30.06,NNW,341,5.0,12.0,84,0.00,,,0.00,264,Wunderground v.1.15,2018-05-20 17:16:00,
2018-05-20 13:22:00,69.0,64.0,30.05,North,350,4.0,9.0,84,0.00,,,0.00,243,Wunderground v.1.15,2018-05-20 17:22:00,
2018-05-20 13:28:00,69.0,63.6,30.06,NW,317,3.0,12.0,83,0.00,,,0.00,241,Wunderground v.1.15,2018-05-20 17:28:00,
2018-05-20 13:34:00,68.8,63.4,30.06,NW,323,7.0,22.0,83,0.00,,,0.00,320,Wunderground v.1.15,2018-05-20 17:34:00,
2018-05-20 13:40:00,68.7,63.3,30.06,NW,313,7.0,7.0,83,0.00,,,0.00,374,Wunderground v.1.15,2018-05-20 17:40:00,
2018-05-20 13:46:00,68.8,63.1,30.06,NW,308,7.0,12.0,82,0.00,,,0.00,250,Wunderground v.1.15,2018-05-20 17:46:00,
2018-05-20 13:52:00,68.6,63.2,30.07,NW,317,6.0,7.0,83,0.00,,,0.00,454,Wunderground v.1.15,2018-05-20 17:52:00,
2018-05-20 13:58:00,68.7,64.3,30.07,North,355,4.0,12.0,86,0.00,,,0.00,424,Wunderground v.1.15,2018-05-20 17:58:00,
2018-05-20 14:04:00,69.2,64.5,30.07,North,350,3.0,12.0,85,0.00,,,0.00,483,Wunderground v.1.15,2018-05-20 18:04:00,
2018-05-20 14:10:00,69.4,63.3,30.07,NNW,340,4.0,12.0,81,0.00,,,0.00,315,Wunderground v.1.15,2018-05-20 18:10:00,
2018-05-20 14:16:00,69.1,62.7,30.06,NNW,344,7.0,12.0,80,0.00,,,0.00,446,Wunderground v.1.15,2018-05-20 18:16:00,
2018-05-20 14:22:00,69.5,63.4,30.06,NNW,334,6.0,8.0,81,0.00,,,0.00,661,Wunderground v.1.15,2018-05-20 18:22:00,
2018-05-20 14:28:00,70.3,63.5,30.06,WNW,300,5.0,12.0,79,0.00,,,0.00,802,Wunderground v.1.15,2018-05-20 18:28:00,
2018-05-20 14:34:00,70.3,63.1,30.07,West,273,6.0,12.0,78,0.00,,,0.00,397,Wunderground v.1.15,2018-05-20 18:34:00,
2018-05-20 14:40:00,69.9,62.7,30.07,NW,323,5.0,12.0,78,0.00,,,0.00,338,Wunderground v.1.15,2018-05-20 18:40:00,
2018-05-20 14:46:00,69.5,62.7,30.07,NNE,20,5.0,12.0,79,0.00,,,0.00,371,Wunderground v.1.15,2018-05-20 18:46:00,
2018-05-20 14:52:00,69.5,62.7,30.07,NNE,15,5.0,12.0,79,0.00,,,0.00,422,Wunderground v.1.15,2018-05-20 18:52:00,
2018-05-20 14:58:00,69.5,62.7,30.07,NW,318,6.0,12.0,79,0.00,,,0.00,997,Wunderground v.1.15,2018-05-20 18:58:00,
2018-05-20 15:04:00,70.1,63.3,30.07,NNW,348,5.0,12.0,79,0.00,,,0.00,911,Wunderground v.1.15,2018-05-20 19:04:00,
2018-05-20 15:10:00,70.7,64.2,30.07,NNW,348,5.0,5.0,80,0.00,,,0.00,868,Wunderground v.1.15,2018-05-20 19:10:00,
2018-05-20 15:16:00,70.9,63.7,30.08,NNW,333,5.0,12.0,78,0.00,,,0.00,373,Wunderground v.1.15,2018-05-20 19:16:00,
2018-05-20 15:22:00,71.2,62.9,30.07,NNE,15,4.0,12.0,75,0.00,,,0.00,851,Wunderground v.1.15,2018-05-20 19:22:00,
2018-05-20 15:28:00,71.1,62.8,30.08,West,272,5.0,12.0,75,0.00,,,0.00,875,Wunderground v.1.15,2018-05-20 19:28:00,
2018-05-20 15:34:00,71.3,63.3,30.08,WNW,292,4.0,12.0,76,0.00,,,0.00,860,Wunderground v.1.15,2018-05-20 19:34:00,
2018-05-20 15:40:00,71.4,62.7,30.08,NW,306,4.0,12.0,74,0.00,,,0.00,819,Wunderground v.1.15,2018-05-20 19:40:00,
2018-05-20 15:46:00,71.7,62.2,30.08,NNW,341,3.0,12.0,72,0.00,,,0.00,766,Wunderground v.1.15,2018-05-20 19:46:00,
2018-05-20 15:52:00,71.7,62.6,30.08,NW,310,3.0,5.0,73,0.00,,,0.00,817,Wunderground v.1.15,2018-05-20 19:52:00,
2018-05-20 15:58:00,71.9,62.8,30.08,NW,313,2.0,12.0,73,0.00,,,0.00,796,Wunderground v.1.15,2018-05-20 19:58:00,
2018-05-20 16:04:00,72.3,62.8,30.08,WNW,283,1.0,5.0,72,0.00,,,0.00,729,Wunderground v.1.15,2018-05-20 20:04:00,
2018-05-20 16:10:00,72.1,62.2,30.08,WNW,298,3.0,12.0,71,0.00,,,0.00,703,Wunderground v.1.15,2018-05-20 20:10:00,
2018-05-20 16:16:00,71.9,63.5,30.08,NW,309,3.0,12.0,75,0.00,,,0.00,689,Wunderground v.1.15,2018-05-20 20:16:00,
2018-05-20 16:22:00,71.7,62.6,30.08,WNW,289,2.0,3.0,73,0.00,,,0.00,668,Wunderground v.1.15,2018-05-20 20:22:00,
2018-05-20 16:28:00,71.8,63.1,30.07,NNW,331,2.0,12.0,74,0.00,,,0.00,666,Wunderground v.1.15,2018-05-20 20:28:00,
2018-05-20 16:34:00,72.2,64.2,30.07,NNE,24,1.0,12.0,76,0.00,,,0.00,592,Wunderground v.1.15,2018-05-20 20:34:00,
2018-05-20 16:40:00,72.1,63.4,30.07,NNW,336,2.0,12.0,74,0.00,,,0.00,557,Wunderground v.1.15,2018-05-20 20:40:00,
2018-05-20 16:46:00,72.0,63.3,30.08,North,360,3.0,12.0,74,0.00,,,0.00,589,Wunderground v.1.15,2018-05-20 20:46:00,
2018-05-20 16:52:00,72.0,62.9,30.07,WNW,295,3.0,12.0,73,0.00,,,0.00,647,Wunderground v.1.15,2018-05-20 20:52:00,
2018-05-20 16:58:00,72.1,63.0,30.08,WNW,296,3.0,12.0,73,0.00,,,0.00,617,Wunderground v.1.15,2018-05-20 20:58:00,
2018-05-20 17:04:00,72.2,63.1,30.08,West,274,2.0,12.0,73,0.00,,,0.00,598,Wunderground v.1.15,2018-05-20 21:04:00,
2018-05-20 17:10:00,72.2,62.7,30.07,NNE,14,2.0,2.0,72,0.00,,,0.00,575,Wunderground v.1.15,2018-05-20 21:10:00,
2018-05-20 17:16:00,72.4,63.6,30.06,West,266,2.0,12.0,74,0.00,,,0.00,563,Wunderground v.1.15,2018-05-20 21:16:00,
2018-05-20 17:22:00,72.6,63.4,30.06,NW,323,2.0,12.0,73,0.00,,,0.00,555,Wunderground v.1.15,2018-05-20 21:22:00,
2018-05-20 17:28:00,72.6,63.4,30.06,West,277,2.0,12.0,73,0.00,,,0.00,531,Wunderground v.1.15,2018-05-20 21:28:00,
2018-05-20 17:34:00,72.3,62.8,30.07,NNW,335,2.0,12.0,72,0.00,,,0.00,504,Wunderground v.1.15,2018-05-20 21:34:00,
2018-05-20 17:40:00,72.2,63.1,30.07,NNW,339,2.0,12.0,73,0.00,,,0.00,469,Wunderground v.1.15,2018-05-20 21:40:00,
2018-05-20 17:46:00,72.1,62.6,30.07,NW,316,3.0,12.0,72,0.00,,,0.00,454,Wunderground v.1.15,2018-05-20 21:46:00,
2018-05-20 17:52:00,72.0,63.3,30.07,NNW,332,2.0,12.0,74,0.00,,,0.00,443,Wunderground v.1.15,2018-05-20 21:52:00,
2018-05-20 17:58:00,72.2,62.3,30.07,NNW,340,1.0,12.0,71,0.00,,,0.00,415,Wunderground v.1.15,2018-05-20 21:58:00,
2018-05-20 18:04:00,72.3,63.2,30.07,NNE,25,2.0,4.0,73,0.00,,,0.00,413,Wunderground v.1.15,2018-05-20 22:04:00,
2018-05-20 18:10:00,72.3,62.8,30.07,NNW,346,2.0,2.0,72,0.00,,,0.00,396,Wunderground v.1.15,2018-05-20 22:10:00,
2018-05-20 18:16:00,72.1,62.6,30.07,NNW,346,2.0,12.0,72,0.00,,,0.00,380,Wunderground v.1.15,2018-05-20 22:16:00,
2018-05-20 18:22:00,72.0,62.5,30.07,NW,309,2.0,12.0,72,0.00,,,0.00,364,Wunderground v.1.15,2018-05-20 22:22:00,
2018-05-20 18:28:00,71.6,62.9,30.07,North,350,2.0,12.0,74,0.00,,,0.00,339,Wunderground v.1.15,2018-05-20 22:28:00,
2018-05-20 18:34:00,71.5,62.8,30.07,NNW,344,1.0,12.0,74,0.00,,,0.00,323,Wunderground v.1.15,2018-05-20 22:34:00,
2018-05-20 18:40:00,71.3,62.2,30.07,NNW,344,2.0,2.0,73,0.00,,,0.00,308,Wunderground v.1.15,2018-05-20 22:40:00,
2018-05-20 18:46:00,71.1,62.8,30.07,North,355,2.0,12.0,75,0.00,,,0.00,283,Wunderground v.1.15,2018-05-20 22:46:00,
2018-05-20 18:52:00,71.3,62.6,30.06,North,355,1.0,12.0,74,0.00,,,0.00,264,Wunderground v.1.15,2018-05-20 22:52:00,
2018-05-20 18:58:00,71.3,62.6,30.07,North,355,1.0,12.0,74,0.00,,,0.00,244,Wunderground v.1.15,2018-05-20 22:58:00,
2018-05-20 19:04:00,71.3,62.6,30.07,North,355,1.0,12.0,74,0.00,,,0.00,223,Wunderground v.1.15,2018-05-20 23:04:00,
2018-05-20 19:10:00,71.3,62.6,30.06,North,355,1.0,12.0,74,0.00,,,0.00,200,Wunderground v.1.15,2018-05-20 23:10:00,
2018-05-20 19:16:00,71.1,62.8,30.06,North,355,1.0,12.0,75,0.00,,,0.00,181,Wunderground v.1.15,2018-05-20 23:16:00,
2018-05-20 19:22:00,71.1,62.4,30.06,North,355,1.0,12.0,74,0.00,,,0.00,155,Wunderground v.1.15,2018-05-20 23:22:00,
2018-05-20 19:28:00,70.9,62.6,30.06,North,9,2.0,12.0,75,0.00,,,0.00,135,Wunderground v.1.15,2018-05-20 23:28:00,
2018-05-20 19:34:00,70.3,62.0,30.06,NNE,27,3.0,12.0,75,0.00,,,0.00,116,Wunderground v.1.15,2018-05-20 23:34:00,
2018-05-20 19:40:00,69.6,61.7,30.06,NNE,25,3.0,12.0,76,0.00,,,0.00,97,Wunderground v.1.15,2018-05-20 23:40:00,
2018-05-20 19:46:00,69.3,61.8,30.06,NNE,25,2.0,12.0,77,0.00,,,0.00,70,Wunderground v.1.15,2018-05-20 23:46:00,
2018-05-20 19:52:00,68.8,61.3,30.06,NNE,23,2.0,3.0,77,0.00,,,0.00,42,Wunderground v.1.15,2018-05-20 23:52:00,
2018-05-20 19:58:00,68.3,60.8,30.06,NNE,19,2.0,12.0,77,0.00,,,0.00,30,Wunderground v.1.15,2018-05-20 23:58:00,
2018-05-20 20:04:00,67.8,60.7,30.06,NNE,19,1.0,12.0,78,0.00,,,0.00,26,Wunderground v.1.15,2018-05-21 00:04:00,
2018-05-20 20:10:00,67.2,60.1,30.06,NNE,19,0.0,12.0,78,0.00,,,0.00,23,Wunderground v.1.15,2018-05-21 00:10:00,
2018-05-20 20:16:00,66.8,60.1,30.07,NNE,19,0.0,12.0,79,0.00,,,0.00,21,Wunderground v.1.15,2018-05-21 00:16:00,
2018-05-20 20:22:00,66.5,60.1,30.07,NNE,19,0.0,12.0,80,0.00,,,0.00,14,Wunderground v.1.15,2018-05-21 00:22:00,
2018-05-20 20:28:00,66.1,59.7,30.07,NNE,19,0.0,12.0,80,0.00,,,0.00,9,Wunderground v.1.15,2018-05-21 00:28:00,
2018-05-20 20:34:00,65.8,59.8,30.07,NNE,19,0.0,12.0,81,0.00,,,0.00,0,Wunderground v.1.15,2018-05-21 00:34:00,
2018-05-20 20:40:00,65.4,59.8,30.08,NNE,19,0.0,12.0,82,0.00,,,0.00,0,Wunderground v.1.15,2018-05-21 00:40:00,
2018-05-20 20:46:00,65.0,59.7,30.08,NNE,19,0.0,12.0,83,0.00,,,0.00,0,Wunderground v.1.15,2018-05-21 00:46:00,
2018-05-20 20:52:00,64.7,59.4,30.08,NNE,19,0.0,12.0,83,0.00,,,0.00,0,Wunderground v.1.15,2018-05-21 00:52:00,
2018-05-20 20:58:00,64.3,59.4,30.08,NNE,19,0.0,12.0,84,0.00,,,0.00,0,Wunderground v.1.15,2018-05-21 00:58:00,
2018-05-20 21:04:00,63.9,59.0,30.08,NNE,19,0.0,12.0,84,0.00,,,0.00,0,Wunderground v.1.15,2018-05-21 01:04:00,
2018-05-20 21:10:00,63.5,58.9,30.08,NNE,19,0.0,12.0,85,0.00,,,0.00,0,Wunderground v.1.15,2018-05-21 01:10:00,
2018-05-20 21:16:00,63.2,58.6,30.08,NNE,19,0.0,12.0,85,0.00,,,0.00,0,Wunderground v.1.15,2018-05-21 01:16:00,
2018-05-20 21:22:00,63.0,58.7,30.08,NNE,19,0.0,12.0,86,0.00,,,0.00,0,Wunderground v.1.15,2018-05-21 01:22:00,
2018-05-20 21:28:00,62.7,58.8,30.08,NNE,19,0.0,12.0,87,0.00,,,0.00,0,Wunderground v.1.15,2018-05-21 01:28:00,
2018-05-20 21:34:00,62.6,58.7,30.09,NNE,19,1.0,12.0,87,0.00,,,0.00,0,Wunderground v.1.15,2018-05-21 01:34:00,
2018-05-20 21:40:00,62.3,58.7,30.09,NNE,13,2.0,2.0,88,0.00,,,0.00,0,Wunderground v.1.15,2018-05-21 01:40:00,
2018-05-20 21:46:00,62.1,58.5,30.09,North,5,2.0,12.0,88,0.00,,,0.00,0,Wunderground v.1.15,2018-05-21 01:46:00,
2018-05-20 21:52:00,61.9,58.6,30.09,North,5,1.0,12.0,89,0.00,,,0.00,0,Wunderground v.1.15,2018-05-21 01:52:00,
2018-05-20 21:58:00,61.7,58.4,30.10,North,5,1.0,12.0,89,0.00,,,0.00,0,Wunderground v.1.15,2018-05-21 01:58:00,
2018-05-20 22:04:00,61.7,58.4,30.11,North,5,1.0,12.0,89,0.00,,,0.00,0,Wunderground v.1.15,2018-05-21 02:04:00,
2018-05-20 22:10:00,61.6,58.3,30.11,North,5,0.0,12.0,89,0.00,,,0.00,0,Wunderground v.1.15,2018-05-21 02:10:00,
2018-05-20 22:16:00,61.6,58.3,30.11,North,5,0.0,12.0,89,0.00,,,0.00,0,Wunderground v.1.15,2018-05-21 02:16:00,
2018-05-20 22:22:00,61.4,58.1,30.11,North,5,0.0,12.0,89,0.00,,,0.00,0,Wunderground v.1.15,2018-05-21 02:22:00,